Flag for Spain

Past Weather in Melilla, Melilla, Spain — Yesterday and Last 2 Weeks

Now
88 °F

Scattered clouds.


Feels Like: 86 °F
Forecast: 83 / 73 °F
Wind: 7 mph from West

Location: Melilla
Current Time: Sep 24, 2020 at 6:19:43 pm
Latest Report: Sep 24, 2020 at 5:00 pm
Visibility: 25 mi
Pressure29.99 "Hg
Humidity: 33%
Dew Point: 55 °F
Location of MelillaLocation

Past Weather in Melilla — Graph

°F

Melilla Temperature Yesterday

Maximum temperature yesterday: 89 °F (at 5:00 pm)
Minimum temperature yesterday: 74 °F (at 9:00 am)
Average temperature yesterday: 80 °F

High & Low Weather Summary for the Past Weeks

 TemperatureHumidityPressure
High89 °F (Sep 23, 5:00 pm)93% (Sep 14, 7:00 am)30.20 "Hg (Sep 14, 7:00 am)
Low68 °F (Sep 22, 5:00 am)28% (Sep 23, 5:00 pm)29.88 "Hg (Sep 17, 7:00 pm)
Average76 °F71%30.04 "Hg
* Reported Sep 9 5:00 pm — Sep 24 5:00 pm, Melilla. Weather by CustomWeather, © 2020

Note: Actual official high and low records may vary slightly from our data, if they occured in-between our weather recording intervals... More about our weather records

Melilla Weather History for the Previous 24 Hours

Scroll right to see more
 ConditionsComfort  
Time TempWeatherWind HumidityBarometerVisibility
5:00 pm
Thu, Sep 24
88 °FScattered clouds.7 mph33%29.99 "Hg25 mi
4:00 pm87 °FPleasantly warm.3 mph39%29.98 "HgN/A
3:00 pm86 °FPleasantly warm.6 mph39%29.99 "HgN/A
2:00 pm86 °FScattered clouds.6 mph39%30.01 "Hg19 mi
1:00 pm85 °FPleasantly warm.6 mph35%30.03 "HgN/A
12:00 pm86 °FPleasantly warm.7 mph37%30.02 "HgN/A
11:00 am85 °FPartly sunny.5 mph35%30.02 "Hg19 mi
10:00 am81 °FPleasantly warm.3 mph40%30.00 "HgN/A
9:00 am76 °FMild.1 mph47%29.99 "HgN/A
8:00 am74 °FPassing clouds.1 mph52%29.98 "Hg25 mi
7:00 am76 °FMild.1 mph44%29.98 "HgN/A
6:00 am75 °FMild.2 mph46%29.98 "HgN/A
5:00 am76 °FMild.1 mph53%29.98 "HgN/A
2:00 am79 °FWarm.7 mph46%29.99 "HgN/A
1:00 am79 °FWarm.10 mph47%29.99 "HgN/A
12:00 am78 °FWarm.5 mph46%30.01 "HgN/A
11:00 pm
Wed, Sep 23
77 °FPassing clouds.8 mph49%30.00 "Hg16 mi
10:00 pm78 °FWarm.7 mph48%29.99 "HgN/A
9:00 pm76 °FMild.8 mph53%29.96 "HgN/A
8:00 pm75 °FPartly sunny.5 mph73%29.96 "Hg19 mi
7:00 pm78 °FWarm.7 mph73%29.94 "HgN/A
6:00 pm85 °FWarm.7 mph40%29.93 "HgN/A
Weather by CustomWeather, © 2020

See weather overview